TimeMDT,TemperatureF,Dew PointF,Humidity,Sea Level PressureIn,VisibilityMPH,Wind Direction,Wind SpeedMPH,Gust SpeedMPH,PrecipitationIn,Events,Conditions,WindDirDegrees,DateUTC
12:53 AM,30.0,19.9,66,30.24,10.0,NW,10.4,21.9,N/A,,Partly Cloudy,320,2012-10-04 06:53:00
1:53 AM,28.9,19.0,67,30.29,10.0,NNW,3.5,-,N/A,,Partly Cloudy,330,2012-10-04 07:53:00
2:53 AM,27.0,18.0,69,30.31,10.0,NW,6.9,-,N/A,,Partly Cloudy,310,2012-10-04 08:53:00
3:53 AM,27.0,18.0,69,30.31,10.0,WNW,3.5,-,N/A,,Clear,300,2012-10-04 09:53:00
4:53 AM,27.0,18.0,69,30.33,10.0,NW,4.6,-,N/A,,Clear,320,2012-10-04 10:53:00
5:53 AM,26.1,17.1,69,30.37,10.0,NNW,5.8,-,N/A,,Scattered Clouds,340,2012-10-04 11:53:00
6:53 AM,27.0,18.0,69,30.37,10.0,Variable,6.9,-,N/A,,Partly Cloudy,0,2012-10-04 12:53:00
7:53 AM,28.9,18.0,64,30.37,10.0,NNW,3.5,-,N/A,,Clear,330,2012-10-04 13:53:00
8:53 AM,32.0,19.0,59,30.37,10.0,North,6.9,-,N/A,,Partly Cloudy,360,2012-10-04 14:53:00
9:27 AM,32.0,19.4,60,30.31,10.0,Variable,4.6,-,N/A,,Mostly Cloudy,0,2012-10-04 15:27:00
9:53 AM,30.9,19.0,61,30.39,10.0,Variable,3.5,-,N/A,,Mostly Cloudy,0,2012-10-04 15:53:00
10:01 AM,30.2,19.4,64,30.31,10.0,Calm,Calm,-,N/A,,Scattered Clouds,0,2012-10-04 16:01:00
10:10 AM,33.8,19.4,56,30.31,10.0,ENE,5.8,-,N/A,,Mostly Cloudy,70,2012-10-04 16:10:00
10:36 AM,33.8,19.4,56,30.30,10.0,Variable,3.5,-,N/A,,Scattered Clouds,0,2012-10-04 16:36:00
10:53 AM,35.1,19.0,52,30.35,10.0,North,3.5,-,N/A,,Clear,360,2012-10-04 16:53:00
11:53 AM,39.0,17.1,41,30.33,10.0,Variable,3.5,-,N/A,,Clear,0,2012-10-04 17:53:00
12:53 PM,43.0,16.0,34,30.29,10.0,NE,8.1,-,N/A,,Mostly Cloudy,40,2012-10-04 18:53:00
1:53 PM,39.0,19.9,46,30.31,10.0,East,8.1,-,N/A,,Overcast,90,2012-10-04 19:53:00
2:53 PM,37.9,19.9,48,30.31,10.0,East,12.7,-,N/A,,Mostly Cloudy,100,2012-10-04 20:53:00
3:53 PM,36.0,19.0,50,30.32,10.0,East,9.2,-,N/A,,Overcast,100,2012-10-04 21:53:00
4:53 PM,36.0,19.9,52,30.33,10.0,East,8.1,16.1,N/A,,Mostly Cloudy,100,2012-10-04 22:53:00
5:53 PM,34.0,21.9,61,30.36,10.0,East,8.1,-,N/A,,Scattered Clouds,80,2012-10-04 23:53:00
6:53 PM,32.0,23.0,69,30.37,10.0,East,5.8,-,N/A,,Clear,80,2012-10-05 00:53:00
7:53 PM,30.9,23.0,72,30.38,10.0,ENE,8.1,-,N/A,,Partly Cloudy,70,2012-10-05 01:53:00
8:32 PM,30.2,21.2,69,30.29,10.0,East,6.9,-,N/A,,Mostly Cloudy,80,2012-10-05 02:32:00
8:53 PM,30.9,23.0,72,30.37,10.0,NE,8.1,-,N/A,,Overcast,50,2012-10-05 02:53:00
9:22 PM,30.2,21.2,69,30.29,10.0,East,11.5,-,N/A,,Overcast,80,2012-10-05 03:22:00
9:53 PM,28.9,21.0,72,30.38,10.0,ENE,8.1,-,N/A,,Overcast,60,2012-10-05 03:53:00
10:19 PM,30.2,21.2,69,30.29,10.0,ENE,9.2,-,N/A,,Overcast,60,2012-10-05 04:19:00
10:53 PM,28.9,21.0,72,30.36,10.0,ENE,8.1,-,N/A,,Mostly Cloudy,70,2012-10-05 04:53:00
11:53 PM,28.0,21.0,75,30.33,10.0,NE,4.6,-,N/A,,Overcast,50,2012-10-05 05:53:00